La Porte, IN

4:31 PM CST on January 18, 2018 (GMT -0600)
La Porte Municipal

Weather History for KPPO - December, 2012

Change the Weather History Date:

Saturday, December 8, 2012

  Actual Average (KSBN) Record (KSBN)
Temperature  
Mean Temperature 38 °F -  
Max Temperature 42 °F 39 °F 65 °F (1966)
Min Temperature 33 °F 26 °F -4 °F (1927)
Degree Days  
Heating Degree Days 28    
Moisture  
Dew Point 37 °F    
Average Humidity 93    
Maximum Humidity 100    
Minimum Humidity 84    
Precipitation  
Precipitation 0.04 in - - ()
Sea Level Pressure  
Sea Level Pressure 29.97 in    
Wind  
Wind Speed 5 mph (NNE)    
Max Wind Speed 16 mph    
Max Gust Speed 21 mph    
Visibility 7 miles    
Events Rain    
Averages and records for this station are not official NWS values.
T = Trace of Precipitation, MM = Missing Value Source: NWS Daily Summary

Daily Weather History Graph

Daily Weather History Graph

Search for Another Location

Airport or City:

Trip Planner

Search our weather history database for the weather conditions in past years. The results will help you decide how hot, cold, wet, or windy it might be!

Date:

Astronomy

Dec. 08, 2012 Rise Set
Actual Time 7:01 AM CST 4:16 PM CST
Civil Twilight 6:30 AM CST 4:47 PM CST
Nautical Twilight 5:55 AM CST 5:22 PM CST
Astronomical Twilight 5:21 AM CST 5:56 PM CST
Moon 1:22 AM CST (12/8) 12:49 PM CST (12/8)
Length of Visible Light 10h 17m
Length of Day
9h 15m
Waning Crescent, 28% of the Moon is Illuminated
Dec 8
Waning Crescent
Dec 13
New
Dec 19
First Quarter
Dec 28
Full
Jan 4
Last Quarter

Hourly Weather History & Observations

Time (CST) Temp. Windchill Dew Point Humidity Pressure Visibility Wind Dir Wind Speed Gust Speed Precip Events Conditions
12:15 AM 41.5 °F - 41.5 °F 100% 29.85 in 3.0 mi Calm Calm - N/A   Overcast
12:35 AM 41.5 °F - 41.5 °F 100% 29.84 in 3.0 mi Calm Calm - N/A   Overcast
12:55 AM 41.5 °F - 41.5 °F 100% 29.84 in 3.0 mi Calm Calm - N/A   Overcast
1:15 AM 41.5 °F - 41.5 °F 100% 29.85 in 2.5 mi Calm Calm - N/A   Overcast
1:35 AM 41.5 °F - 41.5 °F 100% 29.84 in 2.0 mi Calm Calm - N/A   Overcast
1:55 AM 41.4 °F - 41.4 °F 100% 29.85 in 1.8 mi Calm Calm - N/A Rain Rain
2:15 AM 41.2 °F - 41.2 °F 100% 29.85 in 2.0 mi Calm Calm - 0.01 in Rain Light Rain
2:35 AM 41.2 °F 39.2 °F 41.2 °F 100% 29.85 in 2.0 mi NW 3.5 mph - 0.03 in Rain Rain
2:55 AM 41.2 °F 39.2 °F 41.2 °F 100% 29.84 in 2.0 mi NW 3.5 mph - 0.04 in Rain Rain
3:15 AM 41.0 °F 39.0 °F 41.0 °F 100% 29.83 in 2.5 mi NNW 3.5 mph - N/A   Light Drizzle
3:35 AM 40.8 °F - 40.6 °F 99% 29.82 in 3.0 mi Calm Calm - N/A   Light Drizzle
3:55 AM 41.0 °F - 41.0 °F 100% 29.81 in 3.0 mi Calm Calm - N/A   Overcast
4:15 AM 41.0 °F - 41.0 °F 100% 29.83 in 3.0 mi Calm Calm - N/A   Overcast
4:35 AM 41.0 °F 39.0 °F 41.0 °F 100% 29.85 in 2.0 mi WNW 3.5 mph - N/A   Overcast
5:15 AM 41.0 °F - 41.0 °F 100% 29.84 in 1.5 mi Calm Calm - N/A Rain Rain
5:35 AM 41.0 °F - 41.0 °F 100% 29.85 in 2.0 mi Calm Calm - N/A   Light Drizzle
5:55 AM 41.2 °F - 41.2 °F 100% 29.86 in 2.5 mi Calm Calm - N/A   Overcast
6:15 AM 41.5 °F 37.8 °F 41.5 °F 100% 29.86 in 1.8 mi NNW 5.8 mph - N/A   Light Drizzle
6:35 AM 41.5 °F 37.1 °F 41.5 °F 100% 29.87 in 2.0 mi NNW 6.9 mph - N/A   Overcast
6:55 AM 41.5 °F 35.9 °F 41.5 °F 100% 29.88 in 2.5 mi NNW 9.2 mph - N/A   Overcast
7:15 AM 41.4 °F 35.2 °F 41.4 °F 100% 29.88 in 4.0 mi NNW 10.4 mph - N/A   Overcast
7:35 AM 41.2 °F 34.5 °F 41.2 °F 100% 29.89 in 3.0 mi NNW 11.5 mph 20.7 mph N/A   Overcast
7:55 AM 41.0 °F 34.7 °F 40.6 °F 99% 29.89 in 4.0 mi NNW 10.4 mph - N/A   Overcast
8:15 AM 41.0 °F 34.7 °F 40.5 °F 98% 29.89 in 4.0 mi North 10.4 mph 17.3 mph N/A   Overcast
8:35 AM 41.0 °F 35.2 °F 40.6 °F 99% 29.91 in 5.0 mi NW 9.2 mph 18.4 mph N/A   Overcast
8:55 AM 41.2 °F 37.3 °F 40.6 °F 98% 29.92 in 7.0 mi NW 5.8 mph 10.4 mph N/A   Overcast
9:15 AM 41.0 °F 34.7 °F 40.3 °F 97% 29.93 in 7.0 mi North 10.4 mph - N/A   Overcast
9:35 AM 41.0 °F 35.2 °F 40.1 °F 97% 29.93 in 10.0 mi North 9.2 mph - N/A   Overcast
9:55 AM 40.6 °F 33.8 °F 39.4 °F 95% 29.95 in 7.0 mi North 11.5 mph - N/A   Overcast
10:15 AM 40.8 °F 34.5 °F 39.0 °F 93% 29.94 in 10.0 mi North 10.4 mph - N/A   Mostly Cloudy
10:35 AM 42.1 °F 35.7 °F 39.4 °F 90% 29.94 in 10.0 mi North 11.5 mph - N/A   Mostly Cloudy
10:55 AM 40.6 °F 33.4 °F 37.9 °F 90% 29.95 in 10.0 mi NNW 12.7 mph - N/A   Overcast
11:15 AM 39.0 °F 30.6 °F 36.5 °F 91% 29.95 in 10.0 mi North 15.0 mph - N/A   Overcast
11:35 AM 38.5 °F 29.9 °F 36.1 °F 91% 29.95 in 10.0 mi North 15.0 mph 18.4 mph N/A   Overcast
11:55 AM 38.7 °F 30.1 °F 36.5 °F 92% 29.95 in 10.0 mi North 15.0 mph - N/A   Overcast
12:15 PM 39.9 °F 32.1 °F 36.9 °F 89% 29.95 in 10.0 mi North 13.8 mph 18.4 mph N/A   Mostly Cloudy
12:35 PM 39.6 °F 32.1 °F 35.6 °F 86% 29.96 in 10.0 mi North 12.7 mph - N/A   Scattered Clouds
12:55 PM 40.5 °F 32.5 °F 36.0 °F 84% 29.96 in 10.0 mi NNW 15.0 mph - N/A   Mostly Cloudy
1:15 PM 39.2 °F 31.6 °F 35.2 °F 86% 29.98 in 10.0 mi North 12.7 mph 20.7 mph N/A   Overcast
1:35 PM 38.5 °F 29.6 °F 34.9 °F 87% 29.99 in 10.0 mi North 16.1 mph - N/A   Overcast
1:55 PM 38.1 °F 31.2 °F 34.3 °F 86% 29.99 in 10.0 mi North 10.4 mph - N/A   Overcast
2:15 PM 37.8 °F 30.7 °F 34.0 °F 86% 30.00 in 10.0 mi North 10.4 mph - N/A   Overcast
2:35 PM 37.6 °F 31.0 °F 33.8 °F 86% 30.00 in 10.0 mi NNE 9.2 mph - N/A   Overcast
2:55 PM 37.4 °F 31.4 °F 33.8 °F 87% 30.01 in 10.0 mi NE 8.1 mph - N/A   Overcast
3:15 PM 37.4 °F 31.4 °F 33.3 °F 85% 30.02 in 10.0 mi NE 8.1 mph - N/A   Overcast
3:35 PM 37.0 °F 30.4 °F 33.1 °F 86% 30.03 in 10.0 mi NE 9.2 mph - N/A   Overcast
3:55 PM 36.9 °F 31.4 °F 32.9 °F 86% 30.04 in 10.0 mi ENE 6.9 mph - N/A   Overcast
4:15 PM 36.5 °F 32.7 °F 32.9 °F 87% 30.04 in 10.0 mi NE 4.6 mph - N/A   Overcast
4:35 PM 36.3 °F 30.8 °F 32.5 °F 86% 30.04 in 10.0 mi NE 6.9 mph - N/A   Overcast
4:55 PM 35.8 °F 29.4 °F 32.4 °F 87% 30.05 in 10.0 mi NE 8.1 mph - N/A   Mostly Cloudy
5:15 PM 36.0 °F 31.1 °F 32.9 °F 89% 30.06 in 10.0 mi ENE 5.8 mph - N/A   Mostly Cloudy
5:35 PM 36.0 °F 32.1 °F 32.9 °F 89% 30.08 in 10.0 mi East 4.6 mph - N/A   Overcast
5:55 PM 36.1 °F 30.6 °F 32.7 °F 87% 30.07 in 10.0 mi ENE 6.9 mph - N/A   Overcast
6:15 PM 36.1 °F 30.6 °F 32.5 °F 87% 30.08 in 10.0 mi ENE 6.9 mph - N/A   Overcast
6:35 PM 36.0 °F 31.1 °F 32.2 °F 86% 30.08 in 10.0 mi ENE 5.8 mph - N/A   Overcast
6:55 PM 35.6 °F 31.7 °F 32.0 °F 87% 30.09 in 10.0 mi ENE 4.6 mph - N/A   Scattered Clouds
7:15 PM 35.2 °F 32.4 °F 32.2 °F 89% 30.10 in 10.0 mi ENE 3.5 mph - N/A   Mostly Cloudy
7:35 PM 35.6 °F 31.7 °F 32.5 °F 89% 30.10 in 10.0 mi ENE 4.6 mph - N/A   Overcast
8:15 PM 35.2 °F 29.5 °F 32.0 °F 88% 30.09 in 10.0 mi ENE 6.9 mph - N/A   Overcast
8:35 PM 35.1 °F 27.9 °F 32.0 °F 89% 30.09 in 10.0 mi ENE 9.2 mph - N/A   Overcast
8:55 PM 34.7 °F 27.5 °F 31.1 °F 87% 30.10 in 10.0 mi ENE 9.2 mph - N/A   Overcast
9:15 PM 34.7 °F 28.1 °F 30.4 °F 84% 30.11 in 10.0 mi ENE 8.1 mph - N/A   Overcast
9:35 PM 34.2 °F 26.2 °F 30.7 °F 87% 30.10 in 10.0 mi ENE 10.4 mph - N/A   Overcast
9:55 PM 34.0 °F 26.6 °F 30.6 °F 87% 30.10 in 10.0 mi ENE 9.2 mph - N/A   Overcast
10:15 PM 33.8 °F 25.8 °F 30.4 °F 87% 30.10 in 10.0 mi ENE 10.4 mph - N/A   Overcast
10:35 PM 33.8 °F 26.4 °F 30.2 °F 87% 30.11 in 10.0 mi ENE 9.2 mph - N/A   Overcast
10:55 PM 33.6 °F 26.2 °F 30.2 °F 87% 30.11 in 10.0 mi ENE 9.2 mph - N/A   Overcast
11:15 PM 33.4 °F 25.9 °F 30.7 °F 90% 30.11 in 10.0 mi East 9.2 mph - N/A   Overcast
11:35 PM 33.3 °F 23.7 °F 30.4 °F 89% 30.11 in 10.0 mi East 13.8 mph - N/A   Overcast
11:55 PM 33.1 °F 23.9 °F 30.2 °F 89% 30.10 in 10.0 mi East 12.7 mph - N/A   Mostly Cloudy